Hourly Weather Baroncea

Today, 8 May, Saturday

Time Temperature Precipitation Wind Pressure Humidity
00:00 +13°C° 0.6 mm 2 mps 745 mmHg 91%
01:00 +12°C° 0.6 mm 4 mps 745 mmHg 89%
02:00 +10°C° 0 mm 5 mps 745 mmHg 87%
03:00 +10°C° 0.4 mm 5 mps 745 mmHg 88%
04:00 +9°C° 0.4 mm 6 mps 746 mmHg 89%
05:00 +9°C° 0.4 mm 7 mps 746 mmHg 90%
06:00 +9°C° 0 mm 7 mps 747 mmHg 86%
07:00 +8°C° 0 mm 7 mps 748 mmHg 82%
08:00 +7°C° 0 mm 8 mps 749 mmHg 77%
09:00 +7°C° 0 mm 8 mps 750 mmHg 71%
10:00 +8°C° 0 mm 9 mps 750 mmHg 65%
11:00 +8°C° 0 mm 10 mps 751 mmHg 59%
12:00 +9°C° 0 mm 10 mps 751 mmHg 57%
13:00 +9°C° 0 mm 10 mps 751 mmHg 55%
14:00 +9°C° 0 mm 10 mps 752 mmHg 54%
15:00 +10°C° 0 mm 9 mps 752 mmHg 54%
16:00 +10°C° 0 mm 9 mps 752 mmHg 54%
17:00 +10°C° 0 mm 8 mps 752 mmHg 54%
18:00 +9°C° 0 mm 7 mps 753 mmHg 58%
19:00 +8°C° 0 mm 5 mps 754 mmHg 61%
20:00 +7°C° 0 mm 4 mps 754 mmHg 65%
21:00 +7°C° 0 mm 3 mps 754 mmHg 68%
22:00 +5°C° 0 mm 3 mps 755 mmHg 72%
23:00 +5°C° 0 mm 2 mps 755 mmHg 75%

Tomorrow, 9 May, Sunday

Time Temperature Precipitation Wind Pressure Humidity
00:00 +5°C° 0 mm 2 mps 756 mmHg 76%
01:00 +5°C° 0 mm 2 mps 756 mmHg 78%
02:00 +4°C° 0 mm 2 mps 756 mmHg 80%
03:00 +4°C° 0 mm 2 mps 757 mmHg 81%
04:00 +4°C° 0 mm 2 mps 757 mmHg 83%
05:00 +4°C° 0 mm 2 mps 757 mmHg 85%
06:00 +6°C° 0 mm 2 mps 758 mmHg 78%
07:00 +7°C° 0 mm 2 mps 758 mmHg 70%
08:00 +9°C° 0 mm 3 mps 759 mmHg 63%
09:00 +11°C° 0 mm 3 mps 759 mmHg 57%
10:00 +12°C° 0 mm 3 mps 759 mmHg 51%
11:00 +14°C° 0 mm 3 mps 759 mmHg 45%
12:00 +14°C° 0 mm 3 mps 758 mmHg 43%
13:00 +16°C° 0 mm 2 mps 758 mmHg 41%
14:00 +16°C° 0 mm 2 mps 758 mmHg 38%
15:00 +16°C° 0 mm 2 mps 758 mmHg 38%
16:00 +16°C° 0 mm 1 mps 758 mmHg 38%
17:00 +16°C° 0 mm 1 mps 758 mmHg 38%
18:00 +15°C° 0 mm 1 mps 758 mmHg 43%
19:00 +13°C° 0 mm 2 mps 758 mmHg 49%
20:00 +12°C° 0 mm 2 mps 759 mmHg 54%
21:00 +10°C° 0 mm 2 mps 759 mmHg 56%
22:00 +10°C° 0 mm 2 mps 759 mmHg 57%
23:00 +9°C° 0 mm 2 mps 759 mmHg 58%

Day after tomorrow, 10 May, Monday

Time Temperature Precipitation Wind Pressure Humidity
00:00 +9°C° 0 mm 2 mps 759 mmHg 59%
01:00 +8°C° 0 mm 2 mps 759 mmHg 60%
02:00 +8°C° 0 mm 2 mps 759 mmHg 60%
03:00 +8°C° 0 mm 2 mps 759 mmHg 62%
04:00 +8°C° 0 mm 2 mps 759 mmHg 63%
05:00 +7°C° 0 mm 2 mps 759 mmHg 65%
06:00 +9°C° 0 mm 3 mps 759 mmHg 61%
07:00 +11°C° 0 mm 4 mps 759 mmHg 58%
08:00 +13°C° 0 mm 4 mps 759 mmHg 55%
09:00 +14°C° 0 mm 5 mps 759 mmHg 52%
10:00 +16°C° 0 mm 5 mps 759 mmHg 49%
11:00 +17°C° 0 mm 5 mps 759 mmHg 46%
12:00 +19°C° 0 mm 5 mps 759 mmHg 45%
13:00 +19°C° 0 mm 5 mps 758 mmHg 44%
14:00 +20°C° 0 mm 5 mps 758 mmHg 43%
15:00 +20°C° 0 mm 4 mps 758 mmHg 44%
16:00 +20°C° 0 mm 4 mps 757 mmHg 45%
17:00 +19°C° 0 mm 4 mps 757 mmHg 46%
18:00 +18°C° 0 mm 4 mps 757 mmHg 52%
19:00 +16°C° 0 mm 3 mps 757 mmHg 58%
20:00 +13°C° 0 mm 3 mps 757 mmHg 65%
21:00 +12°C° 0 mm 3 mps 757 mmHg 65%
22:00 +12°C° 0 mm 3 mps 757 mmHg 65%
23:00 +11°C° 0 mm 3 mps 757 mmHg 66%

11 May, Tuesday

Time Temperature Precipitation Wind Pressure Humidity
00:00 +10°C° 0 mm 3 mps 757 mmHg 67%
01:00 +10°C° 0 mm 3 mps 757 mmHg 69%
02:00 +9°C° 0 mm 3 mps 757 mmHg 70%
03:00 +9°C° 0 mm 3 mps 757 mmHg 71%
04:00 +8°C° 0 mm 3 mps 757 mmHg 72%
05:00 +8°C° 0 mm 2 mps 757 mmHg 73%
06:00 +10°C° 0 mm 3 mps 757 mmHg 67%
07:00 +11°C° 0 mm 3 mps 757 mmHg 61%
08:00 +13°C° 0 mm 4 mps 757 mmHg 55%
09:00 +16°C° 0 mm 3 mps 756 mmHg 50%
10:00 +17°C° 0 mm 3 mps 756 mmHg 45%
11:00 +18°C° 0 mm 3 mps 756 mmHg 39%
12:00 +19°C° 0 mm 3 mps 755 mmHg 38%
13:00 +20°C° 0 mm 3 mps 755 mmHg 37%
14:00 +20°C° 0 mm 3 mps 754 mmHg 36%
15:00 +20°C° 0 mm 3 mps 754 mmHg 39%
16:00 +20°C° 0 mm 3 mps 753 mmHg 43%
17:00 +20°C° 0 mm 4 mps 753 mmHg 47%
18:00 +18°C° 0 mm 3 mps 753 mmHg 56%
19:00 +16°C° 0 mm 3 mps 753 mmHg 66%
20:00 +14°C° 0 mm 3 mps 752 mmHg 75%
21:00 +13°C° 0 mm 3 mps 752 mmHg 79%
22:00 +13°C° 0 mm 2 mps 752 mmHg 82%
23:00 +13°C° 0 mm 2 mps 752 mmHg 86%

12 May, Wednesday

Time Temperature Precipitation Wind Pressure Humidity
00:00 +12°C° 0 mm 3 mps 752 mmHg 88%
01:00 +11°C° 0 mm 3 mps 751 mmHg 89%
02:00 +11°C° 0 mm 3 mps 751 mmHg 91%
03:00 +10°C° 0 mm 3 mps 751 mmHg 92%
04:00 +9°C° 0 mm 3 mps 751 mmHg 93%
05:00 +8°C° 0 mm 3 mps 751 mmHg 94%
06:00 +10°C° 0 mm 3 mps 751 mmHg 84%
07:00 +11°C° 0 mm 4 mps 750 mmHg 74%
08:00 +12°C° 0 mm 4 mps 750 mmHg 64%
09:00 +13°C° 0 mm 4 mps 750 mmHg 60%
10:00 +14°C° 0 mm 4 mps 749 mmHg 56%
11:00 +17°C° 0 mm 4 mps 749 mmHg 52%
12:00 +15°C° 0 mm 5 mps 749 mmHg 53%
13:00 +15°C° 0 mm 5 mps 748 mmHg 53%
14:00 +15°C° 0 mm 5 mps 748 mmHg 54%
15:00 +15°C° 0 mm 5 mps 748 mmHg 55%
16:00 +15°C° 0 mm 5 mps 747 mmHg 56%
17:00 +14°C° 0 mm 5 mps 747 mmHg 57%
18:00 +14°C° 0 mm 4 mps 747 mmHg 60%
19:00 +13°C° 0 mm 4 mps 747 mmHg 62%
20:00 +12°C° 0 mm 3 mps 747 mmHg 65%
21:00 +12°C° 0 mm 3 mps 747 mmHg 66%
22:00 +12°C° 0 mm 3 mps 746 mmHg 67%
23:00 +12°C° 0 mm 3 mps 746 mmHg 68%

13 May, Thursday

Time Temperature Precipitation Wind Pressure Humidity
00:00 +11°C° 0.7 mm 4 mps 746 mmHg 76%
01:00 +10°C° 0.7 mm 4 mps 745 mmHg 83%
02:00 +9°C° 0.7 mm 5 mps 745 mmHg 90%
03:00 +9°C° 0.4 mm 5 mps 745 mmHg 88%
04:00 +9°C° 0.4 mm 6 mps 744 mmHg 86%
05:00 +9°C° 0.4 mm 6 mps 744 mmHg 85%
06:00 +9°C° 0.4 mm 6 mps 744 mmHg 87%
07:00 +9°C° 0.4 mm 6 mps 744 mmHg 90%
08:00 +10°C° 0.4 mm 6 mps 744 mmHg 92%
09:00 +10°C° 0.4 mm 6 mps 744 mmHg 91%
10:00 +10°C° 0.4 mm 6 mps 744 mmHg 91%
11:00 +10°C° 0.4 mm 6 mps 744 mmHg 90%
12:00 +10°C° 0.4 mm 6 mps 744 mmHg 91%
13:00 +12°C° 0.4 mm 5 mps 744 mmHg 91%
14:00 +12°C° 0.4 mm 4 mps 744 mmHg 91%
15:00 +12°C° 0.3 mm 3 mps 744 mmHg 87%
16:00 +13°C° 0.3 mm 3 mps 744 mmHg 84%
17:00 +15°C° 0.3 mm 2 mps 744 mmHg 81%
18:00 +15°C° 0.1 mm 2 mps 744 mmHg 82%
19:00 +15°C° 0.1 mm 1 mps 744 mmHg 84%
20:00 +14°C° 0.1 mm 1 mps 744 mmHg 85%
21:00 +14°C° 0.2 mm 2 mps 744 mmHg 87%
22:00 +14°C° 0.2 mm 2 mps 744 mmHg 89%
23:00 +13°C° 0.2 mm 3 mps 744 mmHg 91%
Show more